Regional Weather Roundup
Issued by NWS Newport/Morehead, NC

Current Version | Previous Version | Graphics & Text | Print | Product List | Glossary Off
Versions: 1 2 3 4 5 6 7 8 9 10 11 12 13 14 15 16 17 18 19 20 21 22 23 24 25 26 27 28 29 30 31 32 33 34 35 36 37 38 39 40 41 42 43 44 45 46 47 48 49 50

000
ASUS42 KMHX 271810
RWRMHX
WEATHER ROUNDUP FOR EASTERN NORTH CAROLINA
NATIONAL WEATHER SERVICE NEWPORT/MOREHEAD CITY NC
100 PM EST TUE JAN 27 2015

NOTE: "FAIR" INDICATES FEW OR NO CLOUDS BELOW 12,000 FEET
WITH NO SIGNIFICANT WEATHER AND/OR OBSTRUCTIONS TO VISIBILITY

NCZ015>017-031-032-045>047-102-103-271900-
NORTH COAST

CITY           SKY/WX    TMP DP  RH WIND       PRES   REMARKS
EDENTON        CLOUDY    33  30  88 NW9       29.77F
ELIZABETH CITY CLOUDY    34  28  79 NW16      29.75F
KITTY HAWK     CLOUDY    34  31  90 NW9G18    29.72S
MANTEO         CLOUDY    34  30  86 NW15G22   29.73F

$$

NCZ045>047-081-094-103-104-271900-
CENTRAL COAST

CITY           SKY/WX    TMP DP  RH WIND       PRES   REMARKS
FRISCO         CLOUDY    34  32  92 NW10G17   29.73S
SWANQUARTER    NOT AVBL

$$

NCZ095-097-098-100-101-271900-
SOUTHERN COAST

CITY           SKY/WX    TMP DP  RH WIND       PRES   REMARKS
BEAUFORT       CLOUDY    37  29  72 N17       29.76F
CEDAR ISLAND   NOT AVBL
JACKSONVILLE   CLOUDY    41  27  57 NW15      29.78S
PINEY ISLAND     N/A    N/A N/A N/A MISG      29.75F
WILMINGTON     CLOUDY    40  32  73 NW13      29.80S


$$

NCZ011>013-027>030-043-044-078>080-089-090>093-098-271900-
COASTAL PLAIN

CITY           SKY/WX    TMP DP  RH WIND       PRES   REMARKS
AHOSKIE        CLOUDY    32  28  83 NW5       29.80S
CLINTON        CLOUDY    39  28  64 N7        29.82S
ELIZABETHTOWN  CLOUDY    41  26  54 NW3       29.81F
GOLDSBORO      CLOUDY    37  36  93 NW10      29.79F
GREENVILLE     PTSUNNY   36  30  80 N10       29.82F
HAVELOCK       CLOUDY    38  27  64 N20       29.78F
KENANSVILLE    CLOUDY    38  31  73 NW12      29.81F
KINSTON        PTSUNNY   37  28  70 N14       29.80F
NEW BERN       CLOUDY    38  27  64 NW14G22   29.79F
RICHLANDS      CLOUDY    41  27  56 N7        29.79S
ROCKY MOUNT    CLOUDY    37  29  72 W10       29.80F
WASHINGTON     FLURRIES  35  28  75 N9G16     29.79F
WHITEVILLE     PTSUNNY   43  25  50 N6        29.81F

$$

AMZ130-135-150-152-154-156-158-170-250-252-270-ANZ085-086-088-633-658-670-271900-
MARINE OBSERVATIONS

STATION/POSITION TIME  TEMP    WIND        PRES    WAVE   SWELL
                       AIR SEA DIR/SP/G            HT/PER HT/PER
                 (UTC) (F)     (DEG/KT/KT) (MB)    (FT/S) (FT/S)
CHESAPEAKE LIGHT 1700   33     350/ 25/ 27 1007.0
64 E VA BEACH    1800   36 51  340/ 21/ 27 1004.5   13/13  11/13
DUCK             1800   34 43  330/ 19/ 22 1005.7
2 E DUCK         1800      44                N/A     9/13   7/13
10 NE DUCK       1800      45                N/A    11/13   8/13
OREGON INLET     1800   35 45  320/ 16/ 19 1006.3
13E OREGON INLT  1800      46                N/A    12/13   8/13
HATTERAS CG      1800   35 48  330/ 17/ 20 1007.0
DIAMOND BUOY     1800   38 69  340/ 17/ 23 1006.0    9/12   7/12
17 S OCRACOKE    NOT AVBL
CAPE LOOKOUT     1700   37     340/ 15/ 19 1007.6
BEAUFORT LAB     1800   37 49  350/ 13/ 17 1006.6
27 SE WRIGHTSVLE NOT AVBL
5 SE WRIGHTSVLE  1700   40 53  350/ 14/ 16 1008.8
225 S CAPE HAT   1742   58 71  280/ 29/ 37 1004.2   15/10   8/10
41 SE CHARLESTON 1800   45 68  300/ 14/ 17 1009.8    5/ 6   2/12

$$



USA.gov is the U.S. government's official web portal to all federal, state and local government web resources and services.